Location: Unspecified
(0.0000°N, 0.0000°E)
Time: 16:50:31
(UTC+00:00)

Vanguard 1 Rocket - Pass Details

Date: 23 November 2019
Orbit: 650 x 4226 km, 34.3° (Epoch: 12 December)

Event Time Altitude Azimuth Distance (km) Brightness Sun altitude
Rises 09:09:25 0° 315° (NW) 4,003 10.3 46.6°
Reaches altitude 10° 09:11:38 10° 319° (NW) 3,316 10.0 47.1°
Maximum altitude 09:20:14 66° 41° (NE) 2,129 10.1 48.9°
Drops below altitude 10° 09:37:39 10° 120° (ESE) 6,301 12.5 52.5°
Sets 09:43:43 0° 122° (ESE) 7,789 12.7 53.8°
